Regional Weather Roundup
Issued by NWS Albany, NY

Current Version | Previous Version | Text Only | Print | Product List | Glossary Off
Versions: 1 2 3 4 5 6 7 8 9 10 11 12 13 14 15 16 17 18 19 20 21 22 23 24 25 26 27 28 29 30 31 32 33 34 35 36 37 38 39 40 41 42 43 44 45 46 47 48 49 50
000 ASUS41 KALY 210010 RWRALY NEW YORK STATE HOURLY WEATHER ROUNDUP NATIONAL WEATHER SERVICE ALBANY NY 800 PM EDT FRI SEP 20 2019 NOTE: "FAIR" INDICATES FEW OR NO CLOUDS BELOW 12,000 FEET WITH NO SIGNIFICANT WEATHER AND/OR NO OBSTRUCTIONS TO VISIBILITY. NYZ032-033-038>043-046>054-057>066-NYZ062>081-082-084-210100- EAST CITY SKY/WX TMP DP RH WIND PRES REMARKS ALBANY FAIR 64 54 69 CALM 30.16R GLENS FALLS FAIR 58 55 90 CALM 30.15R POUGHKEEPSIE FAIR 62 55 77 CALM 30.15R NEWBURGH CLEAR 64 54 68 CALM 30.17R MONTGOMERY FAIR 57 53 86 SW3 30.16R WHITE PLAINS FAIR 64 49 57 CALM 30.17R ISLIP FAIR 65 57 75 SW7 30.17R NEW YORK CITY PTCLDY 79 43 27 W9 30.16R CENTRAL PARK FAIR 72 49 44 VRB5 30.20R $$ NYZ005>009-017-018-044>046-055-056-210100- CENTRAL CITY SKY/WX TMP DP RH WIND PRES REMARKS FULTON FAIR 61 56 83 CALM 30.19R SYRACUSE MOCLDY 66 55 67 CALM 30.19R ROME FAIR 62 58 86 CALM 30.20R ELMIRA FAIR 60 55 83 CALM 30.20R BINGHAMTON FAIR 66 46 48 SW3 30.23R MONTICELLO FAIR 62 53 72 CALM 30.22R $$ NYZ026>034-041>043-087-210100- NORTH CITY SKY/WX TMP DP RH WIND PRES REMARKS WATERTOWN FAIR 57 55 93 SE3 30.19R FORT DRUM NOT AVBL OGDENSBURG FAIR 63 57 82 SW5 30.15S MASSENA FAIR 65 57 75 SW7 30.16R SARANAC LAKE FAIR 57 51 80 CALM 30.19S PLATTSBURGH FAIR 60 54 80 CALM 30.14R $$ NYZ001>004-010>016-019>021-085-210100- WEST CITY SKY/WX TMP DP RH WIND PRES REMARKS NIAGARA FALLS FAIR 68 56 65 SW3 30.16S BUFFALO MOCLDY 73 54 51 W3 30.18R DUNKIRK FAIR 65 59 81 SE3 30.18R JAMESTOWN FAIR 67 54 63 CALM 30.23R WELLSVILLE FAIR 64 50 60 CALM 30.25R ROCHESTER MOCLDY 71 54 54 NE5 30.19R PENN YAN FAIR 59 55 87 CALM 30.21R $$ KEY WCI = WIND CHILL INDEX VSB = VISIBILITY HX = HEAT INDEX $$

USA.gov is the U.S. government's official web portal to all federal, state and local government web resources and services.